Other Surface Observations
Issued by NWS

Home | Current Version | Previous Version | Text Only | Print | Product List | Glossary On
Versions: 1 2 3 4 5 6 7 8 9 10 11 12 13 14 15 16 17 18 19 20 21 22 23 24 25 26 27 28 29 30 31 32 33 34 35 36 37 38 39 40 41 42 43 44 45 46 47 48 49 50
000
SXPA56 KWBC 270459
OSOHW
:SHEF ENCODED 6-MINUTE NOS MET DATA
:NATIONAL WATER LEVEL OBSERVATION NETWORK (NWLON)
:TA(AIR TEMP DEG F)  SLP(SEA LEVEL PRESSURE INCHES)
:UD(WIND DIRECTION WHOLE DEGREES) US(WIND SPEED MPH)
:TW(WATER TEMP DEG F) UG(WIND GUSTS MPH) WC(CONDUCTIVITY uMHOS/CM)
:PP(PRECIPITATION IN) XV(VISIBILITY SM)
:-9999 (MISSING VALUES)
:PROVIDED BY DOC/NOAA/NOS/CO-OPS, (301) 713-2540
:corms@noaa.gov
.E NWWH1 20221127 Z DH0448/TAIRP/DIN06/   71/   71
.E NWWH1 20221127 Z DH0448/PLIRP/DIN06/30.00/30.01
.E NWWH1 20221127 Z DH0448/USIRP/DIN06/    4/    4
.E NWWH1 20221127 Z DH0448/UDIRP/DIN06/  288/  279
.E NWWH1 20221127 Z DH0448/UGIRP/DIN06/    6/    6
.E NWWH1 20221127 Z DH0442/TAIRG/DIN06/   72/-9999
.E NWWH1 20221127 Z DH0442/PLIRG/DIN06/30.00/-9999
.E NWWH1 20221127 Z DH0442/USIRG/DIN06/    5/-9999
.E NWWH1 20221127 Z DH0442/UDIRG/DIN06/  307/-9999
.E NWWH1 20221127 Z DH0442/UGIRG/DIN06/    7/-9999
.E NWWH1 20221127 Z DH0442/TWIRG/DIN06/   80/   80
.A OOUH1 20221127 Z DH0442/TAIRG    73/UGIRG    14/PLIRG 29.96/UDIRG    50/USIRG     8/TWIRG    78/WCIRG -9999
.A MOKH1 20221127 Z DH0442/TAIRG    74/UGIRG     9/PLIRG 29.96/UDIRG    71/USIRG     6/TWIRG    75/WCIRG -9999
.E KLIH1 20221127 Z DH0436/TAIRG/DIN06/   71/   70
.E KLIH1 20221127 Z DH0436/PLIRG/DIN06/29.96/29.96
.E KLIH1 20221127 Z DH0436/USIRG/DIN06/    9/   10
.E KLIH1 20221127 Z DH0436/UDIRG/DIN06/  319/  306
.E KLIH1 20221127 Z DH0436/UGIRG/DIN06/   11/   11
.E KLIH1 20221127 Z DH0436/TWIRG/DIN06/   77/   77
.E KWHH1 20221127 Z DH0442/TAIRG/DIN06/   77/   77
.E KWHH1 20221127 Z DH0442/PLIRG/DIN06/29.92/29.93
.E KWHH1 20221127 Z DH0442/USIRG/DIN06/    2/    1
.E KWHH1 20221127 Z DH0442/UDIRG/DIN06/  232/  216
.E KWHH1 20221127 Z DH0442/UGIRG/DIN06/    2/    2
.E KWHH1 20221127 Z DH0442/TWIRG/DIN06/   80/   80
.E ILOH1 20221127 Z DH0442/TAIRG/DIN06/   74/   74
.E ILOH1 20221127 Z DH0442/PLIRG/DIN06/29.94/29.95
.E ILOH1 20221127 Z DH0442/USIRG/DIN06/    0/    2
.E ILOH1 20221127 Z DH0442/UDIRG/DIN06/  102/  151
.E ILOH1 20221127 Z DH0442/UGIRG/DIN06/    1/    3
.E ILOH1 20221127 Z DH0442/TWIRG/DIN06/   78/   78
.A SNDP5 20221127 Z DH0442/TAIRG -9999/UGIRG -9999/PLIRG -9999/UDIRG -9999/USIRG -9999/TWIRG    78/WCIRG -9999
.E APRP7 20221127 Z DH0442/TAIRG/DIN06/   86/   86
.E APRP7 20221127 Z DH0442/PLIRG/DIN06/29.81/29.81
.E APRP7 20221127 Z DH0442/USIRG/DIN06/    8/    8
.E APRP7 20221127 Z DH0442/UDIRG/DIN06/   49/   59
.E APRP7 20221127 Z DH0442/UGIRG/DIN06/   12/   13
.E APRP7 20221127 Z DH0442/TWIRG/DIN06/   84/   84
.E PGBP7 20221127 Z DH0442/PLIRG/DIN06/29.81/29.82
.E PGBP7 20221127 Z DH0442/USIRG/DIN06/   10/   13
.E PGBP7 20221127 Z DH0442/UDIRG/DIN06/   49/   48
.E PGBP7 20221127 Z DH0442/UGIRG/DIN06/   17/   18
.E NSTP6 20221127 Z DH0442/TWIRG/DIN06/   85/   85
.E KWJP8 20221127 Z DH0442/PLIRG/DIN06/29.76/29.76
.E WAKP8 20221127 Z DH0436/PLIRG/DIN06/29.92/29.92



USA.gov is the U.S. government's official web portal to all federal, state and local government web resources and services.